Find Kosmos-800

NORAD ID: 8645 Int'l Des: 1976-011 Owner: VMF Country: SU operational
LEOCIRCULARPOLAR

Live-Position

3D-Globus wird geladen...

Über Kosmos-800

Beschreibung wird geladen...

Nächste Überflüge

Passes for default location (London). Set your location on the main map for personalized predictions.

Höhenverlauf

Loading altitude history...

Zweizeiliger Elementsatz

1 8645U 76011A 26131.40161596 .00000045 00000-0 32049-4 0 9994
2 8645 82.9705 143.6353 0022820 83.4138 31.6750 13.72199136516345
Epoch: 11. Mai 2026 • Age: 18 hours

Aktueller Status

Höhe 1025.1 km
Geschwindigkeit 7.33 km/s
Subsatellitenpunkt -54.73°S, 157.8°W
Typ other

Most Searched